QPF
0.01 0.02 0.02 0.02 0.03 0.03 0.02 0.02 0.03 0.04 0.04 0.04 0.07 0.10 0.18 0.22 0.18 0.16 0.11 0.12 0.12 0.13 0.10 0.07 0.05 0.04 0.03 0.03 0.03 0.03 0.02 0.02 0.03 0.04 0.05 0.04 0.03 0.03 0.04 0.04 0.03 0.04 0.04 0.03
0.01 0.01 0.01 0.01 0.02 0.02 0.02 0.03 0.04 0.05 0.06 0.04 0.06 0.10 0.16 0.20 0.18 0.16 0.15 0.11 0.10 0.10 0.07 0.05 0.04 0.03 0.04 0.04 0.03 0.04 0.04 0.03 0.02 0.03 0.04 0.03 0.03 0.02 0.03 0.03 0.02 0.03 0.04 0.04
0.02 0.02 0.02 0.03 0.05 0.03 0.03 0.03 0.04 0.04 0.05 0.05 0.08 0.14 0.18 0.18 0.15 0.14 0.14 0.16 0.14 0.09 0.08 0.05 0.03 0.02 0.03 0.04 0.04 0.04 0.05 0.04 0.03 0.04 0.03 0.03 0.03 0.03 0.03 0.03 0.03 0.04 0.03 0.04
0.02 0.02 0.04 0.04 0.07 0.08 0.04 0.04 0.03 0.03 0.04 0.05 0.08 0.11 0.13 0.15 0.12 0.12 0.10 0.09 0.08 0.06 0.07 0.07 0.06 0.04 0.03 0.02 0.02 0.03 0.02 0.02 0.02 0.03 0.03 0.04 0.04 0.04 0.03 0.04 0.05 0.03 0.03 0.03
0.02 0.03 0.05 0.05 0.05 0.06 0.05 0.06 0.05 0.05 0.06 0.06 0.11 0.14 0.21 0.16 0.10 0.10 0.07 0.07 0.07 0.08 0.07 0.07 0.08 0.08 0.07 0.05 0.03 0.03 0.02 0.02 0.03 0.03 0.03 0.04 0.04 0.03 0.03 0.04 0.05 0.04 0.03 0.03
0.03 0.04 0.05 0.06 0.05 0.05 0.05 0.09 0.09 0.08 0.09 0.09 0.09 0.13 0.18 0.17 0.11 0.11 0.07 0.07 0.07 0.09 0.10 0.08 0.07 0.06 0.05 0.04 0.02 0.02 0.02 0.02 0.03 0.04 0.07 0.08 0.06 0.05 0.04 0.04 0.05 0.04 0.03 0.03
0.05 0.05 0.06 0.05 0.03 0.04 0.07 0.12 0.11 0.12 0.12 0.15 0.14 0.11 0.12 0.12 0.11 0.10 0.09 0.07 0.07 0.09 0.10 0.10 0.10 0.08 0.06 0.04 0.02 0.02 0.02 0.02 0.03 0.04 0.06 0.09 0.08 0.06 0.04 0.04 0.04 0.03 0.03 0.02
0.05 0.05 0.07 0.06 0.05 0.07 0.10 0.10 0.08 0.08 0.09 0.11 0.11 0.09 0.09 0.10 0.10 0.09 0.08 0.07 0.08 0.11 0.13 0.13 0.13 0.10 0.08 0.06 0.05 0.03 0.03 0.02 0.04 0.06 0.07 0.09 0.09 0.07 0.05 0.04 0.03 0.03 0.02 0.01
0.08 0.08 0.07 0.07 0.09 0.11 0.09 0.09 0.07 0.04 0.05 0.07 0.08 0.07 0.08 0.10 0.08 0.06 0.05 0.05 0.08 0.14 0.15 0.13 0.11 0.09 0.06 0.05 0.05 0.04 0.04 0.03 0.03 0.03 0.04 0.05 0.07 0.07 0.05 0.04 0.04 0.04 0.04 0.03
0.09 0.08 0.08 0.07 0.09 0.13 0.10 0.09 0.07 0.05 0.05 0.05 0.05 0.05 0.06 0.10 0.13 0.08 0.06 0.06 0.08 0.16 0.14 0.12 0.10 0.09 0.08 0.06 0.05 0.03 0.04 0.05 0.05 0.05 0.04 0.05 0.05 0.06 0.07 0.06 0.06 0.06 0.06 0.07
0.09 0.09 0.10 0.09 0.08 0.09 0.07 0.06 0.06 0.04 0.03 0.03 0.05 0.08 0.07 0.12 0.14 0.10 0.08 0.07 0.08 0.13 0.13 0.12 0.10 0.08 0.08 0.07 0.05 0.04 0.05 0.06 0.06 0.06 0.06 0.07 0.07 0.07 0.08 0.07 0.08 0.09 0.09 0.08
0.10 0.11 0.08 0.08 0.09 0.10 0.06 0.07 0.06 0.05 0.04 0.03 0.04 0.06 0.05 0.08 0.14 0.11 0.10 0.08 0.07 0.08 0.10 0.10 0.11 0.09 0.09 0.09 0.07 0.06 0.07 0.08 0.09 0.10 0.12 0.12 0.11 0.09 0.09 0.09 0.09 0.09 0.08 0.07
0.06 0.06 0.06 0.07 0.08 0.11 0.07 0.07 0.07 0.04 0.04 0.05 0.08 0.07 0.05 0.06 0.10 0.12 0.10 0.08 0.07 0.07 0.07 0.09 0.09 0.09 0.08 0.10 0.11 0.12 0.12 0.13 0.14 0.15 0.16 0.17 0.17 0.15 0.13 0.10 0.10 0.09 0.09 0.09
0.05 0.05 0.05 0.06 0.09 0.10 0.08 0.06 0.06 0.06 0.07 0.07 0.13 0.17 0.12 0.07 0.08 0.13 0.11 0.07 0.07 0.06 0.05 0.06 0.07 0.07 0.07 0.10 0.12 0.13 0.15 0.15 0.15 0.15 0.15 0.18 0.18 0.18 0.16 0.12 0.10 0.10 0.11 0.11
0.06 0.09 0.10 0.06 0.08 0.11 0.09 0.08 0.08 0.08 0.06 0.07 0.10 0.20 0.25 0.12 0.07 0.11 0.12 0.10 0.08 0.07 0.06 0.06 0.07 0.08 0.09 0.10 0.11 0.12 0.13 0.12 0.13 0.15 0.17 0.19 0.19 0.18 0.17 0.16 0.14 0.14 0.13 0.12
0.07 0.07 0.09 0.06 0.05 0.07 0.07 0.08 0.08 0.07 0.04 0.05 0.08 0.15 0.30 0.21 0.11 0.10 0.10 0.11 0.10 0.07 0.07 0.06 0.07 0.08 0.10 0.09 0.09 0.11 0.13 0.15 0.16 0.17 0.19 0.22 0.24 0.21 0.19 0.19 0.17 0.17 0.17 0.15
0.08 0.06 0.07 0.07 0.06 0.07 0.09 0.10 0.09 0.07 0.05 0.08 0.09 0.14 0.23 0.20 0.14 0.12 0.10 0.09 0.12 0.12 0.10 0.08 0.08 0.11 0.11 0.06 0.04 0.05 0.06 0.08 0.10 0.11 0.12 0.15 0.18 0.20 0.22 0.23 0.20 0.16 0.15 0.13
0.08 0.08 0.08 0.09 0.10 0.13 0.14 0.13 0.09 0.07 0.07 0.10 0.13 0.14 0.20 0.20 0.18 0.15 0.10 0.07 0.08 0.12 0.14 0.12 0.11 0.15 0.15 0.08 0.05 0.05 0.06 0.07 0.08 0.10 0.11 0.14 0.16 0.16 0.18 0.21 0.20 0.15 0.13 0.13
0.09 0.10 0.10 0.10 0.13 0.15 0.15 0.13 0.09 0.08 0.07 0.09 0.13 0.17 0.21 0.22 0.17 0.16 0.12 0.08 0.09 0.11 0.13 0.12 0.11 0.11 0.10 0.08 0.06 0.05 0.05 0.07 0.08 0.09 0.10 0.12 0.15 0.16 0.16 0.17 0.18 0.19 0.21 0.21
0.10 0.09 0.08 0.11 0.13 0.10 0.08 0.08 0.09 0.06 0.06 0.05 0.06 0.10 0.15 0.20 0.17 0.14 0.10 0.08 0.10 0.12 0.12 0.11 0.09 0.09 0.08 0.07 0.06 0.06 0.07 0.09 0.11 0.10 0.11 0.12 0.15 0.18 0.20 0.19 0.18 0.19 0.19 0.17
0.10 0.08 0.11 0.11 0.10 0.06 0.05 0.05 0.04 0.04 0.04 0.04 0.05 0.07 0.11 0.15 0.15 0.14 0.12 0.10 0.11 0.12 0.10 0.09 0.09 0.08 0.06 0.06 0.07 0.07 0.09 0.12 0.14 0.13 0.12 0.11 0.12 0.12 0.15 0.18 0.17 0.16 0.15 0.14
0.12 0.12 0.11 0.08 0.07 0.05 0.05 0.04 0.03 0.03 0.03 0.03 0.05 0.07 0.08 0.08 0.08 0.10 0.11 0.10 0.10 0.11 0.10 0.09 0.09 0.10 0.08 0.07 0.07 0.07 0.08 0.10 0.13 0.13 0.11 0.11 0.10 0.10 0.09 0.10 0.10 0.11 0.12 0.12
0.15 0.11 0.07 0.06 0.05 0.05 0.04 0.03 0.03 0.02 0.03 0.03 0.05 0.08 0.10 0.08 0.07 0.08 0.10 0.09 0.07 0.07 0.06 0.07 0.08 0.09 0.08 0.08 0.08 0.07 0.07 0.07 0.07 0.08 0.10 0.10 0.09 0.08 0.07 0.07 0.07 0.07 0.08 0.09
0.16 0.10 0.05 0.05 0.06 0.06 0.05 0.04 0.04 0.04 0.04 0.05 0.05 0.08 0.11 0.09 0.08 0.08 0.08 0.07 0.05 0.04 0.03 0.04 0.04 0.04 0.05 0.06 0.07 0.07 0.06 0.05 0.04 0.04 0.04 0.04 0.04 0.04 0.04 0.05 0.04 0.04 0.04 0.05
0.13 0.10 0.06 0.05 0.07 0.08 0.06 0.04 0.05 0.05 0.06 0.07 0.08 0.09 0.10 0.11 0.10 0.09 0.07 0.04 0.03 0.02 0.02 0.02 0.02 0.02 0.02 0.03 0.04 0.04 0.05 0.04 0.04 0.04 0.04 0.03 0.03 0.03 0.03 0.03 0.03 0.03 0.03 0.03
0.10 0.09 0.08 0.07 0.06 0.06 0.06 0.05 0.05 0.05 0.04 0.05 0.06 0.05 0.04 0.05 0.06 0.04 0.02 0.01 0.01 0.01 0.01 0.01 0.00 0.00 0.00 0.01 0.01 0.02 0.02 0.02 0.02 0.02 0.02 0.03 0.03 0.03 0.03 0.03 0.03 0.03 0.03 0.04
0.10 0.08 0.07 0.07 0.06 0.06 0.05 0.05 0.05 0.04 0.02 0.02 0.03 0.03 0.02 0.02 0.02 0.02 0.02 0.01 0.01 0.01 0.00 0.00 0.00 0.00 0.00 0.00 0.00 0.00 0.00 0.00 0.00 0.00 0.00 0.01 0.01 0.01 0.02 0.02 0.03 0.03 0.03 0.03
MSLP
1002.73 1003.34 1003.98 1004.63 1005.23 1005.76 1006.15 1006.39 1006.43 1006.31 1006.03 1005.66 1005.24 1004.87 1004.59 1004.46 1004.50 1004.70 1005.04 1005.48 1005.96 1006.46 1006.91 1007.32 1007.68 1008.00 1008.30 1008.60 1008.92 1009.27 1009.64 1010.03 1010.42 1010.80 1011.16 1011.50 1011.83 1012.15 1012.48 1012.83 1013.21 1013.62 1014.04 1014.48
1003.12 1003.68 1004.23 1004.73 1005.15 1005.47 1005.68 1005.77 1005.73 1005.60 1005.38 1005.13 1004.89 1004.70 1004.59 1004.58 1004.69 1004.90 1005.19 1005.54 1005.90 1006.25 1006.59 1006.89 1007.17 1007.44 1007.71 1008.00 1008.31 1008.65 1009.01 1009.39 1009.76 1010.13 1010.49 1010.83 1011.16 1011.50 1011.85 1012.22 1012.61 1013.02 1013.44 1013.86
1003.85 1004.35 1004.80 1005.16 1005.42 1005.57 1005.63 1005.60 1005.50 1005.35 1005.19 1005.04 1004.93 1004.87 1004.87 1004.94 1005.07 1005.24 1005.44 1005.65 1005.85 1006.05 1006.23 1006.41 1006.60 1006.80 1007.02 1007.29 1007.59 1007.91 1008.26 1008.62 1008.99 1009.35 1009.70 1010.04 1010.38 1010.73 1011.09 1011.47 1011.86 1012.27 1012.68 1013.08
1004.80 1005.24 1005.59 1005.82 1005.95 1005.96 1005.89 1005.77 1005.63 1005.48 1005.36 1005.29 1005.26 1005.28 1005.35 1005.43 1005.53 1005.63 1005.71 1005.78 1005.82 1005.85 1005.88 1005.93 1006.01 1006.14 1006.31 1006.54 1006.81 1007.12 1007.45 1007.80 1008.14 1008.49 1008.83 1009.17 1009.52 1009.87 1010.24 1010.62 1011.01 1011.40 1011.79 1012.18
1005.80 1006.16 1006.41 1006.54 1006.55 1006.46 1006.30 1006.12 1005.94 1005.80 1005.71 1005.68 1005.71 1005.78 1005.86 1005.94 1005.99 1006.00 1005.96 1005.88 1005.78 1005.66 1005.56 1005.49 1005.48 1005.54 1005.66 1005.85 1006.09 1006.36 1006.67 1006.98 1007.31 1007.63 1007.96 1008.29 1008.63 1008.99 1009.35 1009.73 1010.11 1010.49 1010.86 1011.22
1006.69 1006.96 1007.12 1007.15 1007.07 1006.91 1006.70 1006.48 1006.29 1006.15 1006.09 1006.09 1006.15 1006.23 1006.31 1006.36 1006.35 1006.29 1006.15 1005.96 1005.74 1005.51 1005.31 1005.16 1005.07 1005.06 1005.13 1005.27 1005.47 1005.71 1005.97 1006.25 1006.53 1006.82 1007.13 1007.44 1007.78 1008.13 1008.49 1008.87 1009.24 1009.60 1009.96 1010.30
1007.37 1007.55 1007.62 1007.57 1007.43 1007.23 1006.99 1006.76 1006.57 1006.45 1006.41 1006.43 1006.50 1006.59 1006.66 1006.68 1006.63 1006.50 1006.30 1006.04 1005.74 1005.44 1005.18 1004.96 1004.82 1004.76 1004.78 1004.87 1005.01 1005.18 1005.39 1005.60 1005.84 1006.09 1006.36 1006.65 1006.97 1007.31 1007.67 1008.04 1008.41 1008.77 1009.12 1009.44
1007.83 1007.92 1007.92 1007.82 1007.64 1007.42 1007.18 1006.96 1006.79 1006.70 1006.68 1006.71 1006.79 1006.88 1006.94 1006.94 1006.86 1006.70 1006.46 1006.16 1005.83 1005.50 1005.20 1004.95 1004.76 1004.65 1004.61 1004.62 1004.68 1004.78 1004.90 1005.04 1005.20 1005.39 1005.61 1005.87 1006.17 1006.51 1006.86 1007.24 1007.61 1007.97 1008.31 1008.64
1008.17 1008.18 1008.12 1007.99 1007.79 1007.57 1007.35 1007.17 1007.03 1006.96 1006.96 1007.02 1007.10 1007.18 1007.23 1007.21 1007.12 1006.95 1006.71 1006.40 1006.07 1005.72 1005.40 1005.12 1004.89 1004.71 1004.59 1004.51 1004.46 1004.44 1004.45 1004.48 1004.55 1004.66 1004.82 1005.03 1005.31 1005.63 1005.98 1006.36 1006.74 1007.12 1007.47 1007.82
1008.49 1008.45 1008.35 1008.21 1008.03 1007.83 1007.65 1007.50 1007.40 1007.36 1007.38 1007.44 1007.52 1007.59 1007.63 1007.60 1007.51 1007.34 1007.10 1006.80 1006.47 1006.12 1005.78 1005.45 1005.16 1004.90 1004.66 1004.45 1004.27 1004.10 1003.96 1003.86 1003.80 1003.81 1003.89 1004.05 1004.28 1004.58 1004.93 1005.31 1005.71 1006.10 1006.48 1006.85
1008.94 1008.87 1008.76 1008.62 1008.46 1008.30 1008.16 1008.05 1007.99 1007.98 1008.01 1008.07 1008.14 1008.19 1008.21 1008.18 1008.08 1007.91 1007.67 1007.37 1007.04 1006.67 1006.30 1005.91 1005.53 1005.15 1004.78 1004.40 1004.04 1003.70 1003.38 1003.11 1002.91 1002.79 1002.77 1002.85 1003.03 1003.29 1003.63 1004.01 1004.42 1004.84 1005.25 1005.65
1009.59 1009.51 1009.41 1009.29 1009.17 1009.05 1008.95 1008.88 1008.85 1008.85 1008.89 1008.94 1008.99 1009.02 1009.01 1008.95 1008.84 1008.66 1008.41 1008.11 1007.76 1007.36 1006.92 1006.46 1005.96 1005.44 1004.89 1004.33 1003.76 1003.21 1002.70 1002.24 1001.87 1001.61 1001.47 1001.46 1001.57 1001.79 1002.09 1002.46 1002.88 1003.31 1003.74 1004.18
1010.45 1010.37 1010.28 1010.19 1010.10 1010.02 1009.96 1009.93 1009.92 1009.93 1009.96 1009.99 1010.01 1010.01 1009.97 1009.88 1009.74 1009.53 1009.27 1008.95 1008.56 1008.11 1007.60 1007.03 1006.40 1005.72 1004.99 1004.23 1003.46 1002.70 1001.98 1001.34 1000.79 1000.38 1000.11 999.99 1000.02 1000.18 1000.44 1000.78 1001.18 1001.62 1002.07 1002.53
1011.42 1011.36 1011.29 1011.22 1011.16 1011.12 1011.10 1011.09 1011.10 1011.11 1011.13 1011.13 1011.12 1011.07 1011.00 1010.87 1010.70 1010.47 1010.18 1009.82 1009.39 1008.88 1008.29 1007.62 1006.86 1006.03 1005.13 1004.18 1003.21 1002.25 1001.35 1000.53 999.83 999.27 998.88 998.66 998.59 998.68 998.88 999.18 999.55 999.97 1000.42 1000.90
1012.40 1012.35 1012.29 1012.24 1012.22 1012.21 1012.21 1012.23 1012.25 1012.27 1012.27 1012.25 1012.20 1012.12 1012.00 1011.84 1011.64 1011.38 1011.06 1010.67 1010.20 1009.64 1008.98 1008.22 1007.35 1006.39 1005.35 1004.25 1003.13 1002.02 1000.96 1000.00 999.17 998.49 997.99 997.68 997.53 997.54 997.68 997.92 998.25 998.64 999.07 999.54
1013.27 1013.21 1013.17 1013.14 1013.14 1013.16 1013.20 1013.24 1013.28 1013.30 1013.29 1013.26 1013.19 1013.07 1012.93 1012.74 1012.50 1012.22 1011.88 1011.47 1010.97 1010.38 1009.68 1008.86 1007.92 1006.88 1005.75 1004.55 1003.32 1002.11 1000.96 999.91 998.99 998.23 997.66 997.27 997.06 997.00 997.08 997.26 997.53 997.87 998.27 998.71
1013.95 1013.89 1013.85 1013.85 1013.88 1013.93 1014.01 1014.08 1014.14 1014.17 1014.17 1014.12 1014.04 1013.91 1013.74 1013.53 1013.29 1012.99 1012.64 1012.23 1011.72 1011.12 1010.41 1009.57 1008.62 1007.55 1006.38 1005.15 1003.89 1002.64 1001.45 1000.36 999.41 998.62 998.01 997.58 997.32 997.21 997.24 997.37 997.59 997.87 998.22 998.62
1014.41 1014.35 1014.34 1014.36 1014.43 1014.53 1014.65 1014.76 1014.85 1014.90 1014.92 1014.88 1014.79 1014.66 1014.48 1014.27 1014.02 1013.72 1013.38 1012.98 1012.49 1011.91 1011.22 1010.41 1009.47 1008.43 1007.28 1006.07 1004.84 1003.62 1002.45 1001.38 1000.45 999.67 999.06 998.62 998.35 998.21 998.20 998.29 998.46 998.69 998.99 999.34
1014.71 1014.66 1014.68 1014.75 1014.87 1015.02 1015.19 1015.36 1015.49 1015.58 1015.61 1015.59 1015.51 1015.38 1015.20 1014.99 1014.75 1014.47 1014.15 1013.77 1013.32 1012.78 1012.14 1011.38 1010.51 1009.52 1008.45 1007.31 1006.15 1005.00 1003.90 1002.90 1002.02 1001.29 1000.72 1000.31 1000.04 999.90 999.88 999.94 1000.07 1000.26 1000.50 1000.80
1014.92 1014.91 1014.97 1015.11 1015.29 1015.52 1015.75 1015.97 1016.15 1016.28 1016.35 1016.34 1016.27 1016.15 1015.98 1015.78 1015.55 1015.28 1014.99 1014.64 1014.23 1013.75 1013.17 1012.48 1011.69 1010.80 1009.82 1008.78 1007.72 1006.66 1005.66 1004.75 1003.95 1003.29 1002.77 1002.40 1002.17 1002.05 1002.03 1002.08 1002.19 1002.35 1002.55 1002.79
1015.13 1015.19 1015.32 1015.53 1015.80 1016.10 1016.40 1016.68 1016.91 1017.07 1017.17 1017.18 1017.12 1017.01 1016.85 1016.65 1016.43 1016.19 1015.91 1015.60 1015.24 1014.81 1014.30 1013.69 1012.99 1012.19 1011.31 1010.38 1009.42 1008.47 1007.57 1006.75 1006.04 1005.45 1005.00 1004.68 1004.48 1004.39 1004.38 1004.44 1004.54 1004.68 1004.84 1005.03
1015.42 1015.56 1015.79 1016.09 1016.44 1016.81 1017.18 1017.51 1017.78 1017.97 1018.08 1018.11 1018.07 1017.95 1017.80 1017.61 1017.40 1017.17 1016.92 1016.64 1016.32 1015.94 1015.49 1014.96 1014.33 1013.63 1012.84 1012.01 1011.15 1010.30 1009.49 1008.75 1008.11 1007.59 1007.19 1006.92 1006.76 1006.69 1006.70 1006.76 1006.86 1006.99 1007.12 1007.28
1015.83 1016.08 1016.40 1016.78 1017.21 1017.65 1018.06 1018.43 1018.73 1018.94 1019.06 1019.10 1019.05 1018.94 1018.79 1018.61 1018.40 1018.19 1017.96 1017.70 1017.42 1017.09 1016.69 1016.22 1015.67 1015.03 1014.33 1013.58 1012.80 1012.03 1011.30 1010.63 1010.05 1009.58 1009.22 1008.98 1008.84 1008.79 1008.81 1008.88 1008.97 1009.08 1009.20 1009.32
1016.38 1016.72 1017.13 1017.59 1018.07 1018.56 1019.00 1019.39 1019.70 1019.91 1020.04 1020.07 1020.02 1019.91 1019.76 1019.58 1019.39 1019.18 1018.97 1018.74 1018.49 1018.19 1017.84 1017.43 1016.93 1016.37 1015.74 1015.06 1014.35 1013.64 1012.97 1012.35 1011.81 1011.37 1011.03 1010.81 1010.68 1010.63 1010.65 1010.71 1010.80 1010.89 1010.99 1011.07
1017.04 1017.47 1017.95 1018.46 1018.98 1019.48 1019.94 1020.32 1020.62 1020.83 1020.94 1020.97 1020.91 1020.81 1020.66 1020.48 1020.30 1020.11 1019.91 1019.71 1019.48 1019.22 1018.91 1018.54 1018.10 1017.60 1017.03 1016.41 1015.77 1015.12 1014.49 1013.92 1013.41 1012.99 1012.66 1012.44 1012.30 1012.24 1012.24 1012.29 1012.35 1012.42 1012.48 1012.54
1017.79 1018.28 1018.80 1019.34 1019.87 1020.36 1020.80 1021.17 1021.45 1021.63 1021.73 1021.75 1021.69 1021.59 1021.44 1021.28 1021.11 1020.93 1020.75 1020.57 1020.37 1020.14 1019.87 1019.54 1019.16 1018.71 1018.21 1017.66 1017.08 1016.49 1015.91 1015.38 1014.90 1014.50 1014.18 1013.95 1013.79 1013.71 1013.68 1013.69 1013.72 1013.75 1013.78 1013.79
1018.62 1019.13 1019.66 1020.19 1020.70 1021.16 1021.57 1021.90 1022.15 1022.32 1022.40 1022.41 1022.35 1022.25 1022.12 1021.96 1021.80 1021.64 1021.48 1021.31 1021.14 1020.94 1020.70 1020.42 1020.09 1019.71 1019.27 1018.80 1018.29 1017.77 1017.26 1016.78 1016.34 1015.96 1015.65 1015.41 1015.24 1015.12 1015.05 1015.02 1014.99 1014.98 1014.96 1014.92
Thickness
5729 5739 5742 5738 5739 5740 5732 5724 5715 5721 5726 5733 5738 5742 5745 5748 5749 5750 5749 5748 5746 5745 5745 5745 5744 5743 5742 5741 5740 5738 5735 5732 5731 5729 5728 5726 5725 5724 5722 5721 5720 5719 5717 5716
5721 5734 5736 5731 5736 5737 5737 5735 5728 5728 5729 5743 5743 5743 5743 5745 5746 5746 5747 5748 5747 5746 5745 5744 5745 5744 5743 5742 5741 5739 5735 5732 5731 5728 5726 5725 5723 5722 5720 5719 5718 5716 5715 5713
5700 5719 5722 5709 5724 5730 5730 5733 5731 5723 5730 5738 5738 5739 5739 5743 5745 5746 5748 5748 5748 5748 5748 5747 5747 5746 5744 5743 5741 5738 5735 5733 5731 5729 5726 5724 5723 5721 5719 5717 5715 5714 5713 5712
5690 5700 5687 5706 5731 5735 5728 5727 5731 5731 5732 5735 5734 5736 5740 5744 5748 5749 5750 5750 5750 5750 5749 5748 5748 5747 5745 5743 5740 5737 5735 5733 5731 5728 5726 5724 5721 5719 5717 5716 5714 5712 5711 5710
5678 5679 5688 5709 5723 5726 5720 5713 5724 5725 5728 5731 5734 5733 5733 5742 5747 5750 5751 5752 5753 5752 5750 5749 5747 5746 5744 5740 5738 5736 5734 5732 5731 5729 5726 5723 5720 5718 5717 5715 5713 5711 5710 5708
5675 5673 5671 5694 5720 5729 5720 5700 5717 5722 5722 5723 5724 5713 5719 5736 5742 5745 5748 5750 5750 5749 5748 5746 5746 5745 5741 5738 5736 5734 5734 5733 5732 5729 5726 5723 5721 5718 5717 5715 5713 5711 5709 5708
5669 5667 5676 5699 5716 5721 5694 5693 5711 5716 5717 5716 5713 5714 5721 5730 5735 5739 5742 5745 5746 5745 5744 5744 5744 5741 5737 5736 5735 5736 5735 5733 5730 5729 5727 5724 5721 5719 5716 5714 5711 5709 5707 5707
5661 5659 5667 5696 5703 5695 5694 5705 5709 5711 5713 5712 5712 5716 5720 5725 5728 5732 5735 5739 5741 5739 5739 5740 5741 5738 5735 5734 5737 5736 5733 5730 5728 5727 5726 5724 5720 5717 5715 5712 5708 5706 5704 5703
5660 5663 5677 5688 5690 5694 5698 5700 5702 5704 5707 5709 5709 5709 5712 5715 5719 5723 5727 5730 5732 5732 5731 5732 5735 5735 5732 5733 5734 5732 5729 5727 5726 5724 5723 5722 5719 5715 5712 5709 5706 5704 5702 5700
5658 5666 5674 5680 5684 5689 5693 5695 5698 5701 5702 5703 5702 5703 5705 5708 5710 5714 5717 5720 5723 5724 5723 5724 5727 5730 5731 5731 5731 5729 5726 5723 5722 5720 5719 5718 5716 5714 5711 5708 5705 5703 5700 5699
5650 5659 5666 5671 5675 5680 5684 5689 5691 5694 5696 5696 5696 5697 5699 5700 5703 5706 5709 5712 5715 5715 5716 5717 5720 5722 5724 5726 5726 5724 5722 5720 5719 5717 5715 5713 5711 5709 5708 5707 5707 5704 5702 5699
5642 5651 5654 5658 5667 5673 5674 5677 5681 5684 5685 5688 5689 5689 5691 5692 5695 5699 5701 5705 5707 5708 5709 5711 5713 5715 5717 5720 5721 5718 5715 5714 5712 5711 5709 5708 5705 5702 5702 5702 5701 5701 5699 5697
5646 5651 5653 5657 5662 5666 5667 5669 5673 5675 5676 5678 5681 5683 5684 5686 5689 5691 5693 5697 5699 5700 5701 5703 5705 5707 5709 5712 5713 5712 5709 5707 5706 5705 5703 5701 5699 5697 5693 5692 5692 5691 5690 5689
5645 5647 5647 5650 5653 5658 5659 5662 5664 5667 5669 5672 5674 5675 5677 5679 5682 5684 5685 5688 5691 5693 5694 5695 5697 5698 5701 5704 5704 5703 5701 5700 5700 5698 5697 5695 5693 5692 5689 5686 5683 5681 5680 5679
5637 5641 5641 5644 5648 5651 5653 5654 5656 5657 5659 5662 5665 5666 5668 5669 5672 5674 5677 5680 5682 5683 5684 5686 5687 5688 5692 5694 5694 5693 5693 5692 5692 5691 5690 5688 5687 5685 5682 5679 5676 5672 5670 5668
5629 5633 5636 5637 5639 5642 5645 5647 5648 5649 5650 5652 5654 5656 5658 5661 5664 5666 5669 5671 5671 5672 5673 5675 5676 5678 5681 5683 5684 5683 5683 5684 5683 5682 5680 5679 5677 5675 5673 5670 5666 5663 5661 5658
5621 5623 5625 5628 5632 5635 5637 5638 5640 5641 5643 5644 5645 5647 5649 5651 5654 5655 5657 5659 5660 5661 5663 5664 5665 5668 5670 5673 5673 5673 5673 5673 5674 5672 5670 5669 5667 5665 5663 5660 5657 5653 5651 5649
5618 5620 5622 5624 5627 5629 5631 5632 5633 5634 5635 5636 5637 5638 5638 5639 5640 5641 5644 5646 5648 5649 5650 5652 5655 5658 5659 5661 5662 5661 5661 5661 5661 5659 5658 5657 5656 5654 5652 5649 5646 5642 5639 5637
5613 5615 5617 5621 5623 5624 5624 5624 5625 5626 5627 5628 5628 5627 5628 5629 5630 5631 5633 5634 5635 5635 5635 5639 5643 5646 5646 5648 5649 5649 5648 5648 5647 5646 5645 5643 5642 5640 5637 5635 5632 5629 5626 5623
5607 5610 5613 5616 5618 5618 5617 5617 5617 5618 5619 5619 5619 5618 5617 5617 5619 5620 5621 5620 5620 5621 5625 5628 5631 5632 5633 5634 5636 5636 5634 5633 5631 5630 5629 5628 5627 5625 5622 5620 5617 5614 5611 5608
5602 5604 5607 5609 5610 5610 5611 5611 5611 5610 5609 5610 5609 5608 5607 5607 5608 5609 5610 5609 5609 5613 5616 5618 5619 5619 5620 5621 5621 5620 5619 5617 5615 5613 5612 5611 5610 5608 5606 5604 5601 5598 5595 5592
5597 5598 5599 5601 5601 5600 5600 5601 5602 5601 5600 5600 5599 5598 5597 5596 5597 5597 5596 5596 5597 5601 5604 5604 5605 5605 5607 5607 5606 5605 5603 5601 5599 5598 5596 5595 5594 5592 5589 5587 5585 5582 5579 5577
5590 5591 5591 5592 5592 5591 5591 5591 5592 5592 5591 5590 5588 5588 5587 5586 5586 5587 5584 5585 5588 5590 5591 5591 5591 5592 5593 5593 5591 5589 5587 5585 5583 5582 5580 5578 5577 5575 5572 5570 5568 5565 5562 5559
5582 5583 5583 5584 5584 5583 5581 5580 5581 5582 5581 5580 5578 5578 5578 5577 5576 5576 5576 5577 5578 5579 5578 5577 5578 5578 5579 5577 5575 5572 5570 5569 5567 5565 5563 5561 5559 5557 5555 5552 5550 5547 5545 5542
5575 5576 5576 5577 5575 5573 5573 5572 5572 5571 5570 5569 5568 5568 5568 5568 5566 5566 5567 5567 5567 5568 5566 5566 5565 5565 5564 5561 5559 5556 5554 5552 5551 5549 5546 5544 5542 5539 5537 5535 5533 5530 5527 5524
5566 5566 5566 5566 5566 5566 5565 5564 5563 5561 5560 5559 5557 5557 5557 5557 5557 5557 5556 5556 5556 5555 5554 5553 5552 5550 5548 5547 5544 5541 5539 5537 5535 5532 5529 5526 5524 5521 5519 5516 5514 5512 5509 5505
5557 5557 5557 5557 5556 5556 5556 5555 5553 5551 5551 5550 5548 5547 5547 5547 5547 5546 5545 5544 5543 5542 5541 5539 5538 5536 5534 5532 5529 5527 5524 5521 5518 5515 5512 5509 5506 5503 5501 5499 5496 5494 5491 5488